Time,TemperatureF,DewpointF,PressureIn,WindDirection,WindDirectionDegrees,WindSpeedMPH,WindSpeedGustMPH,Humidity,HourlyPrecipIn,Conditions,Clouds,dailyrainin,SoftwareType,DateUTC
2013-07-31 00:00:00,72.4,69.6,29.91,North,350,0.0,1.0,91,0.00,,SKC,0.00,VWS V14.01,2013-07-31 05:00:00,
2013-07-31 00:10:00,72.4,69.6,29.91,North,350,0.0,0.0,91,0.00,,SKC,0.00,VWS V14.01,2013-07-31 05:10:00,
2013-07-31 00:20:00,72.3,69.5,29.91,North,350,0.0,1.0,91,0.00,,SKC,0.00,VWS V14.01,2013-07-31 05:20:00,
2013-07-31 00:30:00,72.2,69.4,29.91,North,350,0.0,1.0,91,0.00,,SKC,0.00,VWS V14.01,2013-07-31 05:30:00,
2013-07-31 00:40:00,72.1,69.7,29.91,North,350,0.0,0.0,92,0.00,,SKC,0.00,VWS V14.01,2013-07-31 05:40:00,
2013-07-31 00:50:00,71.9,69.4,29.91,North,350,0.0,1.0,92,0.00,,SKC,0.00,VWS V14.01,2013-07-31 05:50:00,
2013-07-31 01:00:00,71.8,69.4,29.91,North,350,0.0,1.0,92,0.00,,SKC,0.00,VWS V14.01,2013-07-31 06:00:00,
2013-07-31 01:10:00,71.7,69.3,29.90,North,350,0.0,1.0,92,0.00,,SKC,0.00,VWS V14.01,2013-07-31 06:10:00,
2013-07-31 01:20:00,71.6,69.2,29.90,North,350,0.0,0.0,92,0.00,,SKC,0.00,VWS V14.01,2013-07-31 06:20:00,
2013-07-31 01:30:00,71.5,69.4,29.90,North,350,0.0,0.0,93,0.00,,SKC,0.00,VWS V14.01,2013-07-31 06:30:00,
2013-07-31 01:40:00,71.3,69.2,29.90,North,350,0.0,0.0,93,0.00,,SKC,0.00,VWS V14.01,2013-07-31 06:40:00,
2013-07-31 01:50:00,71.2,69.1,29.90,North,350,0.0,0.0,93,0.00,,SKC,0.00,VWS V14.01,2013-07-31 06:50:00,
2013-07-31 02:00:00,71.1,69.3,29.89,North,350,0.0,0.0,94,0.00,,SKC,0.00,VWS V14.01,2013-07-31 07:00:00,
2013-07-31 02:10:00,70.8,69.0,29.90,North,350,0.0,0.0,94,0.00,,SKC,0.00,VWS V14.01,2013-07-31 07:10:00,
2013-07-31 02:20:00,70.8,69.0,29.90,North,350,0.0,0.0,94,0.00,,SKC,0.00,VWS V14.01,2013-07-31 07:20:00,
2013-07-31 02:30:00,70.9,69.1,29.90,North,350,0.0,0.0,94,0.00,,SKC,0.00,VWS V14.01,2013-07-31 07:30:00,
2013-07-31 02:40:00,70.8,69.0,29.90,North,350,0.0,0.0,94,0.00,,SKC,0.00,VWS V14.01,2013-07-31 07:40:00,
2013-07-31 02:50:00,70.7,68.9,29.90,North,350,0.0,0.0,94,0.00,,SKC,0.00,VWS V14.01,2013-07-31 07:50:00,
2013-07-31 03:00:00,70.7,68.9,29.90,North,350,0.0,0.0,94,0.00,,SKC,0.00,VWS V14.01,2013-07-31 08:00:00,
2013-07-31 03:10:00,70.6,68.8,29.91,North,350,0.0,0.0,94,0.00,,SKC,0.00,VWS V14.01,2013-07-31 08:10:00,
2013-07-31 03:20:00,70.6,68.8,29.90,North,350,0.0,0.0,94,0.00,,SKC,0.00,VWS V14.01,2013-07-31 08:20:00,
2013-07-31 03:30:00,70.5,68.7,29.91,North,350,0.0,1.0,94,0.00,,SKC,0.00,VWS V14.01,2013-07-31 08:30:00,
2013-07-31 03:40:00,70.4,68.6,29.91,North,350,0.0,3.0,94,0.00,,SKC,0.00,VWS V14.01,2013-07-31 08:40:00,
2013-07-31 03:50:00,70.4,68.3,29.91,North,350,0.0,0.0,93,0.00,,SKC,0.00,VWS V14.01,2013-07-31 08:50:00,
2013-07-31 04:00:00,70.4,68.6,29.91,North,350,0.0,3.0,94,0.00,,SKC,0.00,VWS V14.01,2013-07-31 09:00:00,
2013-07-31 04:10:00,69.9,68.1,29.90,North,350,0.0,0.0,94,0.00,,SKC,0.00,VWS V14.01,2013-07-31 09:10:00,
2013-07-31 04:20:00,69.4,67.6,29.89,North,350,0.0,0.0,94,0.00,,SKC,0.00,VWS V14.01,2013-07-31 09:20:00,
2013-07-31 04:30:00,68.9,67.4,29.90,North,350,0.0,0.0,95,0.00,,SKC,0.00,VWS V14.01,2013-07-31 09:30:00,
2013-07-31 04:40:00,68.7,67.2,29.89,North,350,0.0,1.0,95,0.00,,SKC,0.00,VWS V14.01,2013-07-31 09:40:00,
2013-07-31 04:50:00,68.3,67.1,29.89,North,350,0.0,0.0,96,0.00,,SKC,0.00,VWS V14.01,2013-07-31 09:50:00,
2013-07-31 05:00:00,67.9,66.7,29.89,North,350,0.0,0.0,96,0.00,,SKC,0.00,VWS V14.01,2013-07-31 10:00:00,
2013-07-31 05:10:00,67.8,66.9,29.90,North,350,0.0,1.0,97,0.00,,SKC,0.00,VWS V14.01,2013-07-31 10:10:00,
2013-07-31 05:20:00,67.7,66.8,29.90,North,350,0.0,0.0,97,0.00,,SKC,0.00,VWS V14.01,2013-07-31 10:20:00,
2013-07-31 05:30:00,67.4,66.5,29.91,North,350,0.0,0.0,97,0.00,,SKC,0.00,VWS V14.01,2013-07-31 10:30:00,
2013-07-31 05:40:00,67.1,66.2,29.91,North,350,0.0,0.0,97,0.00,,SKC,0.00,VWS V14.01,2013-07-31 10:40:00,
2013-07-31 05:50:00,66.8,66.2,29.91,North,350,0.0,0.0,98,0.00,,SKC,0.00,VWS V14.01,2013-07-31 10:50:00,
2013-07-31 06:00:00,66.3,65.4,29.92,North,350,0.0,0.0,97,0.00,,SKC,0.00,VWS V14.01,2013-07-31 11:00:00,
2013-07-31 06:03:00,65.9,65.3,29.92,North,350,0.0,0.0,98,0.00,,SKC,0.00,VWS V14.01,2013-07-31 11:03:00,
2013-07-31 06:08:00,65.6,65.0,29.93,North,350,0.0,0.0,98,0.00,,SKC,0.00,VWS V14.01,2013-07-31 11:08:00,
2013-07-31 06:10:00,65.9,65.3,29.92,North,350,0.0,0.0,98,0.00,,SKC,0.00,VWS V14.01,2013-07-31 11:10:00,
2013-07-31 06:13:00,65.5,64.9,29.93,North,350,0.0,0.0,98,0.00,,SKC,0.00,VWS V14.01,2013-07-31 11:13:00,
2013-07-31 06:18:00,65.7,65.1,29.93,North,350,0.0,0.0,98,0.00,,SKC,0.00,VWS V14.01,2013-07-31 11:18:00,
2013-07-31 06:20:00,65.6,65.0,29.93,North,350,0.0,0.0,98,0.00,,SKC,0.00,VWS V14.01,2013-07-31 11:20:00,
2013-07-31 06:23:00,65.7,65.1,29.94,North,350,0.0,0.0,98,0.00,,SKC,0.00,VWS V14.01,2013-07-31 11:23:00,
2013-07-31 06:28:00,65.9,65.3,29.94,North,350,0.0,1.0,98,0.00,,SKC,0.00,VWS V14.01,2013-07-31 11:28:00,
2013-07-31 06:30:00,65.7,65.1,29.94,North,350,0.0,0.0,98,0.00,,SKC,0.00,VWS V14.01,2013-07-31 11:30:00,
2013-07-31 06:33:00,65.9,65.3,29.95,North,350,0.0,1.0,98,0.00,,SKC,0.00,VWS V14.01,2013-07-31 11:33:00,
2013-07-31 06:38:00,65.8,65.2,29.95,North,350,0.0,0.0,98,0.00,,SKC,0.00,VWS V14.01,2013-07-31 11:38:00,
2013-07-31 06:40:00,65.9,65.3,29.95,North,350,0.0,1.0,98,0.00,,SKC,0.00,VWS V14.01,2013-07-31 11:40:00,
2013-07-31 06:43:00,65.8,65.2,29.94,North,350,0.0,0.0,98,0.00,,SKC,0.00,VWS V14.01,2013-07-31 11:43:00,
2013-07-31 06:48:00,65.8,65.2,29.94,North,350,0.0,0.0,98,0.00,,SKC,0.00,VWS V14.01,2013-07-31 11:48:00,
2013-07-31 06:50:00,65.8,65.2,29.95,North,350,0.0,0.0,98,0.00,,SKC,0.00,VWS V14.01,2013-07-31 11:50:00,
2013-07-31 06:53:00,65.9,65.3,29.94,North,350,0.0,0.0,98,0.00,,SKC,0.00,VWS V14.01,2013-07-31 11:53:00,
2013-07-31 06:58:00,66.0,65.7,29.94,North,350,0.0,0.0,99,0.00,,SKC,0.00,VWS V14.01,2013-07-31 11:58:00,
2013-07-31 07:00:00,65.9,65.3,29.94,North,350,0.0,1.0,98,0.00,,SKC,0.00,VWS V14.01,2013-07-31 12:00:00,
2013-07-31 07:03:00,66.1,65.8,29.94,North,350,0.0,0.0,99,0.00,,SKC,0.00,VWS V14.01,2013-07-31 12:03:00,
2013-07-31 07:08:00,66.1,65.8,29.94,North,350,0.0,0.0,99,0.00,,SKC,0.00,VWS V14.01,2013-07-31 12:08:00,
2013-07-31 07:10:00,66.0,65.7,29.94,North,350,0.0,0.0,99,0.00,,SKC,0.00,VWS V14.01,2013-07-31 12:10:00,
2013-07-31 07:13:00,66.2,65.9,29.94,North,350,0.0,0.0,99,0.00,,SKC,0.00,VWS V14.01,2013-07-31 12:13:00,
2013-07-31 07:18:00,66.3,66.0,29.94,North,350,0.0,0.0,99,0.00,,SKC,0.00,VWS V14.01,2013-07-31 12:18:00,
2013-07-31 07:20:00,66.2,65.9,29.94,North,350,0.0,0.0,99,0.00,,SKC,0.00,VWS V14.01,2013-07-31 12:20:00,
2013-07-31 07:23:00,66.6,66.3,29.94,North,350,0.0,0.0,99,0.00,,SKC,0.00,VWS V14.01,2013-07-31 12:23:00,
2013-07-31 07:28:00,66.6,66.0,29.94,North,350,0.0,0.0,98,0.00,,SKC,0.00,VWS V14.01,2013-07-31 12:28:00,
2013-07-31 07:30:00,66.6,66.3,29.94,North,350,0.0,0.0,99,0.00,,SKC,0.00,VWS V14.01,2013-07-31 12:30:00,
2013-07-31 07:33:00,66.8,66.5,29.94,North,350,0.0,0.0,99,0.00,,SKC,0.00,VWS V14.01,2013-07-31 12:33:00,
2013-07-31 07:38:00,67.1,66.8,29.94,North,350,0.0,0.0,99,0.00,,SKC,0.00,VWS V14.01,2013-07-31 12:38:00,
2013-07-31 07:40:00,66.8,66.5,29.94,North,350,0.0,0.0,99,0.00,,SKC,0.00,VWS V14.01,2013-07-31 12:40:00,
2013-07-31 07:43:00,67.4,67.1,29.94,North,350,0.0,0.0,99,0.00,,SKC,0.00,VWS V14.01,2013-07-31 12:43:00,
2013-07-31 07:48:00,67.6,67.0,29.94,North,350,0.0,0.0,98,0.00,,SKC,0.00,VWS V14.01,2013-07-31 12:48:00,
2013-07-31 07:50:00,67.4,67.1,29.93,North,350,0.0,0.0,99,0.00,,SKC,0.00,VWS V14.01,2013-07-31 12:50:00,
2013-07-31 07:53:00,67.9,67.6,29.94,North,350,0.0,0.0,99,0.00,,SKC,0.00,VWS V14.01,2013-07-31 12:53:00,
2013-07-31 07:58:00,68.3,67.7,29.94,North,350,0.0,1.0,98,0.00,,SKC,0.00,VWS V14.01,2013-07-31 12:58:00,
2013-07-31 08:00:00,67.9,67.6,29.94,North,350,0.0,0.0,99,0.00,,SKC,0.00,VWS V14.01,2013-07-31 13:00:00,
2013-07-31 08:03:00,68.6,68.0,29.94,North,350,0.0,0.0,98,0.00,,SKC,0.00,VWS V14.01,2013-07-31 13:03:00,
2013-07-31 08:08:00,68.7,67.8,29.94,North,350,0.0,0.0,97,0.00,,SKC,0.00,VWS V14.01,2013-07-31 13:08:00,
2013-07-31 08:10:00,68.5,67.9,29.94,North,350,0.0,1.0,98,0.00,,SKC,0.00,VWS V14.01,2013-07-31 13:10:00,
2013-07-31 08:13:00,69.1,68.2,29.94,North,350,0.0,0.0,97,0.00,,SKC,0.00,VWS V14.01,2013-07-31 13:13:00,
2013-07-31 08:18:00,69.5,68.6,29.94,North,350,0.0,0.0,97,0.00,,SKC,0.00,VWS V14.01,2013-07-31 13:18:00,
2013-07-31 08:20:00,69.0,68.1,29.94,North,350,0.0,0.0,97,0.00,,SKC,0.00,VWS V14.01,2013-07-31 13:20:00,
2013-07-31 08:23:00,69.9,68.7,29.94,North,350,0.0,0.0,96,0.00,,SKC,0.00,VWS V14.01,2013-07-31 13:23:00,
2013-07-31 08:29:00,70.3,68.8,29.94,North,350,0.0,0.0,95,0.00,,SKC,0.00,VWS V14.01,2013-07-31 13:29:00,
2013-07-31 08:30:00,69.9,68.7,29.94,North,350,0.0,0.0,96,0.00,,SKC,0.00,VWS V14.01,2013-07-31 13:30:00,
2013-07-31 08:34:00,70.7,69.2,29.94,North,350,0.0,0.0,95,0.00,,SKC,0.00,VWS V14.01,2013-07-31 13:34:00,
2013-07-31 08:39:00,71.2,69.7,29.94,North,350,0.0,0.0,95,0.00,,SKC,0.00,VWS V14.01,2013-07-31 13:39:00,
2013-07-31 08:40:00,70.6,69.1,29.94,North,350,0.0,0.0,95,0.00,,SKC,0.00,VWS V14.01,2013-07-31 13:40:00,
2013-07-31 08:44:00,71.5,69.7,29.94,North,350,0.0,0.0,94,0.00,,SKC,0.00,VWS V14.01,2013-07-31 13:44:00,
2013-07-31 08:49:00,71.7,69.3,29.95,North,350,0.0,0.0,92,0.00,,SKC,0.00,VWS V14.01,2013-07-31 13:49:00,
2013-07-31 08:50:00,71.5,69.4,29.94,North,350,0.0,0.0,93,0.00,,SKC,0.00,VWS V14.01,2013-07-31 13:50:00,
2013-07-31 08:54:00,72.0,69.6,29.95,North,350,0.0,0.0,92,0.00,,SKC,0.00,VWS V14.01,2013-07-31 13:54:00,
2013-07-31 08:59:00,72.2,69.8,29.95,North,350,0.0,0.0,92,0.00,,SKC,0.00,VWS V14.01,2013-07-31 13:59:00,
2013-07-31 09:00:00,71.9,69.4,29.95,North,350,0.0,0.0,92,0.00,,SKC,0.00,VWS V14.01,2013-07-31 14:00:00,
2013-07-31 09:04:00,72.4,69.9,29.95,North,350,0.0,0.0,92,0.00,,SKC,0.00,VWS V14.01,2013-07-31 14:04:00,
2013-07-31 09:09:00,72.9,70.4,29.95,North,350,0.0,1.0,92,0.00,,SKC,0.00,VWS V14.01,2013-07-31 14:09:00,
2013-07-31 09:10:00,72.3,69.5,29.95,North,350,0.0,1.0,91,0.00,,SKC,0.00,VWS V14.01,2013-07-31 14:10:00,
2013-07-31 09:14:00,73.3,70.5,29.95,North,350,0.0,0.0,91,0.00,,SKC,0.00,VWS V14.01,2013-07-31 14:14:00,
2013-07-31 09:19:00,73.1,70.0,29.95,North,350,0.0,0.0,90,0.00,,SKC,0.00,VWS V14.01,2013-07-31 14:19:00,
2013-07-31 09:20:00,73.3,70.2,29.95,North,350,0.0,1.0,90,0.00,,SKC,0.00,VWS V14.01,2013-07-31 14:20:00,
2013-07-31 09:24:00,73.9,70.8,29.96,North,350,0.0,0.0,90,0.00,,SKC,0.00,VWS V14.01,2013-07-31 14:24:00,
2013-07-31 09:29:00,73.8,70.0,29.96,North,350,0.0,1.0,88,0.00,,SKC,0.00,VWS V14.01,2013-07-31 14:29:00,
2013-07-31 09:30:00,73.8,70.4,29.96,North,350,0.0,1.0,89,0.00,,SKC,0.00,VWS V14.01,2013-07-31 14:30:00,
2013-07-31 09:34:00,73.6,70.2,29.96,North,350,0.0,0.0,89,0.00,,SKC,0.00,VWS V14.01,2013-07-31 14:34:00,
2013-07-31 09:39:00,73.6,69.8,29.96,North,350,0.0,1.0,88,0.00,,SKC,0.00,VWS V14.01,2013-07-31 14:39:00,
2013-07-31 09:40:00,73.6,70.2,29.96,North,350,0.0,2.0,89,0.00,,SKC,0.00,VWS V14.01,2013-07-31 14:40:00,
2013-07-31 09:44:00,73.8,70.0,29.96,North,350,0.0,0.0,88,0.00,,SKC,0.00,VWS V14.01,2013-07-31 14:44:00,
2013-07-31 09:49:00,74.1,70.0,29.96,North,350,0.0,0.0,87,0.00,,SKC,0.00,VWS V14.01,2013-07-31 14:49:00,
2013-07-31 09:50:00,73.8,69.7,29.96,North,350,0.0,1.0,87,0.00,,SKC,0.00,VWS V14.01,2013-07-31 14:50:00,
2013-07-31 09:54:00,74.0,69.6,29.96,North,351,0.0,2.0,86,0.00,,SKC,0.00,VWS V14.01,2013-07-31 14:54:00,
2013-07-31 09:59:00,74.4,69.6,29.96,North,351,0.0,2.0,85,0.00,,SKC,0.00,VWS V14.01,2013-07-31 14:59:00,
2013-07-31 10:00:00,74.0,69.6,29.96,North,351,2.0,2.0,86,0.00,,SKC,0.00,VWS V14.01,2013-07-31 15:00:00,
2013-07-31 10:04:00,74.8,70.7,29.96,North,351,0.0,0.0,87,0.00,,SKC,0.00,VWS V14.01,2013-07-31 15:04:00,
2013-07-31 10:09:00,74.8,69.7,29.96,North,351,0.0,1.0,84,0.00,,SKC,0.00,VWS V14.01,2013-07-31 15:09:00,
2013-07-31 10:10:00,74.6,70.5,29.96,North,351,0.0,2.0,87,0.00,,SKC,0.00,VWS V14.01,2013-07-31 15:10:00,
2013-07-31 10:14:00,74.9,70.1,29.97,NNW,347,0.0,0.0,85,0.00,,SKC,0.00,VWS V14.01,2013-07-31 15:14:00,
2013-07-31 10:19:00,75.0,70.2,29.97,NNW,347,0.0,2.0,85,0.00,,SKC,0.00,VWS V14.01,2013-07-31 15:19:00,
2013-07-31 10:20:00,74.9,70.4,29.97,NNW,347,0.0,1.0,86,0.00,,SKC,0.00,VWS V14.01,2013-07-31 15:20:00,
2013-07-31 10:24:00,74.9,70.1,29.97,NNW,347,0.0,0.0,85,0.00,,SKC,0.00,VWS V14.01,2013-07-31 15:24:00,
2013-07-31 10:29:00,74.8,70.0,29.97,NNW,345,0.0,3.0,85,0.00,,SKC,0.00,VWS V14.01,2013-07-31 15:29:00,
2013-07-31 10:30:00,75.0,70.2,29.97,NNW,347,0.0,2.0,85,0.00,,SKC,0.00,VWS V14.01,2013-07-31 15:30:00,
2013-07-31 10:34:00,75.0,70.2,29.97,NNW,345,0.0,0.0,85,0.00,,SKC,0.00,VWS V14.01,2013-07-31 15:34:00,
2013-07-31 10:39:00,74.7,69.2,29.97,NNW,337,2.0,4.0,83,0.00,,SKC,0.00,VWS V14.01,2013-07-31 15:39:00,
2013-07-31 10:40:00,75.0,69.8,29.97,NNW,344,0.0,3.0,84,0.00,,SKC,0.00,VWS V14.01,2013-07-31 15:40:00,
2013-07-31 10:44:00,74.5,69.0,29.97,NW,325,0.0,0.0,83,0.00,,SKC,0.00,VWS V14.01,2013-07-31 15:44:00,
2013-07-31 10:49:00,74.7,69.2,29.96,NNW,327,0.0,4.0,83,0.00,,SKC,0.00,VWS V14.01,2013-07-31 15:49:00,
2013-07-31 10:50:00,74.5,69.0,29.97,NW,325,0.0,5.0,83,0.00,,SKC,0.00,VWS V14.01,2013-07-31 15:50:00,
2013-07-31 10:54:00,75.2,69.7,29.96,NNW,330,0.0,0.0,83,0.00,,SKC,0.00,VWS V14.01,2013-07-31 15:54:00,
2013-07-31 10:59:00,75.8,70.3,29.96,NNW,331,0.0,0.0,83,0.00,,SKC,0.00,VWS V14.01,2013-07-31 15:59:00,
2013-07-31 11:00:00,74.9,70.1,29.96,NNW,328,0.0,4.0,85,0.00,,SKC,0.00,VWS V14.01,2013-07-31 16:00:00,
2013-07-31 11:04:00,75.6,70.1,29.96,NNW,331,0.0,0.0,83,0.00,,SKC,0.00,VWS V14.01,2013-07-31 16:04:00,
2013-07-31 11:09:00,75.6,69.0,29.96,NW,322,0.0,5.0,80,0.00,,SKC,0.00,VWS V14.01,2013-07-31 16:09:00,
2013-07-31 11:10:00,75.6,70.1,29.96,NNW,331,0.0,0.0,83,0.00,,SKC,0.00,VWS V14.01,2013-07-31 16:10:00,
2013-07-31 11:14:00,76.0,69.0,29.97,NW,318,0.0,0.0,79,0.00,,SKC,0.00,VWS V14.01,2013-07-31 16:14:00,
2013-07-31 11:19:00,75.7,69.1,29.97,NW,318,0.0,0.0,80,0.00,,SKC,0.00,VWS V14.01,2013-07-31 16:19:00,
2013-07-31 11:20:00,76.0,69.0,29.96,NW,316,0.0,6.0,79,0.00,,SKC,0.00,VWS V14.01,2013-07-31 16:20:00,
2013-07-31 11:24:00,75.8,69.2,29.97,NW,318,0.0,0.0,80,0.00,,SKC,0.00,VWS V14.01,2013-07-31 16:24:00,
2013-07-31 11:29:00,76.9,70.6,29.96,NNW,335,0.0,1.0,81,0.00,,SKC,0.00,VWS V14.01,2013-07-31 16:29:00,
2013-07-31 11:30:00,75.8,69.6,29.97,NW,318,0.0,0.0,81,0.00,,SKC,0.00,VWS V14.01,2013-07-31 16:30:00,
2013-07-31 11:34:00,77.5,69.3,29.96,NNW,333,4.0,4.0,76,0.00,,SKC,0.00,VWS V14.01,2013-07-31 16:34:00,
2013-07-31 11:39:00,77.3,69.2,29.95,NNW,338,0.0,4.0,76,0.00,,SKC,0.00,VWS V14.01,2013-07-31 16:39:00,
2013-07-31 11:40:00,77.5,69.7,29.96,NNW,334,0.0,1.0,77,0.00,,SKC,0.00,VWS V14.01,2013-07-31 16:40:00,
2013-07-31 11:44:00,77.8,69.6,29.95,NNW,339,0.0,0.0,76,0.00,,SKC,0.00,VWS V14.01,2013-07-31 16:44:00,
2013-07-31 11:49:00,77.4,68.9,29.95,NNW,340,0.0,1.0,75,0.00,,SKC,0.00,VWS V14.01,2013-07-31 16:49:00,
2013-07-31 11:50:00,77.6,70.2,29.96,NNW,339,0.0,4.0,78,0.00,,SKC,0.00,VWS V14.01,2013-07-31 16:50:00,
2013-07-31 11:54:00,76.7,68.9,29.95,NNW,339,0.0,3.0,77,0.00,,SKC,0.00,VWS V14.01,2013-07-31 16:54:00,
2013-07-31 12:00:00,77.0,68.9,29.95,NNW,340,0.0,1.0,76,0.00,,SKC,0.00,VWS V14.01,2013-07-31 17:00:00,
2013-07-31 12:02:00,76.4,69.4,29.94,NNW,339,0.0,0.0,79,0.00,,SKC,0.00,VWS V14.01,2013-07-31 17:02:00,
2013-07-31 12:07:00,77.1,69.3,29.94,NNW,336,0.0,0.0,77,0.00,,SKC,0.00,VWS V14.01,2013-07-31 17:07:00,
2013-07-31 12:10:00,76.4,69.4,29.94,NNW,339,0.0,0.0,79,0.00,,SKC,0.00,VWS V14.01,2013-07-31 17:10:00,
2013-07-31 12:12:00,77.4,69.6,29.94,NNW,336,0.0,0.0,77,0.00,,SKC,0.00,VWS V14.01,2013-07-31 17:12:00,
2013-07-31 12:17:00,77.2,69.1,29.94,NW,324,0.0,4.0,76,0.00,,SKC,0.00,VWS V14.01,2013-07-31 17:17:00,
2013-07-31 12:20:00,77.4,69.6,29.94,NNW,336,0.0,0.0,77,0.00,,SKC,0.00,VWS V14.01,2013-07-31 17:20:00,
2013-07-31 12:23:00,77.9,69.3,29.94,NNW,336,0.0,4.0,75,0.00,,SKC,0.00,VWS V14.01,2013-07-31 17:23:00,
2013-07-31 12:28:00,78.9,70.7,29.94,NNW,335,0.0,1.0,76,0.00,,SKC,0.00,VWS V14.01,2013-07-31 17:28:00,
2013-07-31 12:30:00,77.9,69.3,29.94,NNW,337,0.0,4.0,75,0.00,,SKC,0.00,VWS V14.01,2013-07-31 17:30:00,
2013-07-31 12:33:00,79.6,69.8,29.94,NNW,338,0.0,1.0,72,0.00,,SKC,0.00,VWS V14.01,2013-07-31 17:33:00,
2013-07-31 12:38:00,79.1,69.7,29.94,NNW,328,0.0,4.0,73,0.00,,SKC,0.00,VWS V14.01,2013-07-31 17:38:00,
2013-07-31 12:40:00,79.6,69.0,29.94,NNW,338,0.0,1.0,70,0.00,,SKC,0.00,VWS V14.01,2013-07-31 17:40:00,
2013-07-31 12:43:00,79.5,69.7,29.94,NNW,342,0.0,4.0,72,0.00,,SKC,0.00,VWS V14.01,2013-07-31 17:43:00,
2013-07-31 12:48:00,79.8,71.2,29.94,NNW,348,0.0,0.0,75,0.00,,SKC,0.00,VWS V14.01,2013-07-31 17:48:00,
2013-07-31 12:50:00,79.5,69.7,29.94,NNW,342,0.0,4.0,72,0.00,,SKC,0.00,VWS V14.01,2013-07-31 17:50:00,
2013-07-31 12:53:00,80.3,69.6,29.94,NNW,331,0.0,1.0,70,0.00,,SKC,0.00,VWS V14.01,2013-07-31 17:53:00,
2013-07-31 12:58:00,80.1,70.3,29.94,NNW,333,0.0,3.0,72,0.00,,SKC,0.00,VWS V14.01,2013-07-31 17:58:00,
2013-07-31 13:00:00,80.3,69.6,29.94,NNW,331,0.0,1.0,70,0.00,,SKC,0.00,VWS V14.01,2013-07-31 18:00:00,
2013-07-31 13:03:00,80.5,70.2,29.94,NNW,346,0.0,3.0,71,0.00,,SKC,0.00,VWS V14.01,2013-07-31 18:03:00,
2013-07-31 13:08:00,80.4,70.1,29.94,North,350,0.0,4.0,71,0.00,,SKC,0.00,VWS V14.01,2013-07-31 18:08:00,
2013-07-31 13:10:00,80.5,70.2,29.94,NNW,346,0.0,3.0,71,0.00,,SKC,0.00,VWS V14.01,2013-07-31 18:10:00,
2013-07-31 13:13:00,80.7,69.2,29.94,NW,317,0.0,6.0,68,0.00,,SKC,0.00,VWS V14.01,2013-07-31 18:13:00,
2013-07-31 13:18:00,80.6,69.1,29.93,NW,321,0.0,1.0,68,0.00,,SKC,0.00,VWS V14.01,2013-07-31 18:18:00,
2013-07-31 13:20:00,80.7,69.2,29.94,NW,317,0.0,6.0,68,0.00,,SKC,0.00,VWS V14.01,2013-07-31 18:20:00,
2013-07-31 13:23:00,80.3,69.6,29.93,NW,314,0.0,0.0,70,0.00,,SKC,0.00,VWS V14.01,2013-07-31 18:23:00,
2013-07-31 13:28:00,80.4,69.7,29.93,NW,325,0.0,1.0,70,0.00,,SKC,0.00,VWS V14.01,2013-07-31 18:28:00,
2013-07-31 13:30:00,80.3,69.6,29.93,NW,314,0.0,1.0,70,0.00,,SKC,0.00,VWS V14.01,2013-07-31 18:30:00,
2013-07-31 13:33:00,80.3,69.2,29.92,NW,325,1.0,1.0,69,0.00,,SKC,0.00,VWS V14.01,2013-07-31 18:33:00,
2013-07-31 13:38:00,81.3,70.2,29.93,NW,325,0.0,1.0,69,0.00,,SKC,0.00,VWS V14.01,2013-07-31 18:38:00,
2013-07-31 13:40:00,80.3,69.2,29.92,NW,325,0.0,1.0,69,0.00,,SKC,0.00,VWS V14.01,2013-07-31 18:40:00,
2013-07-31 13:43:00,81.2,68.8,29.93,NW,326,0.0,0.0,66,0.00,,SKC,0.00,VWS V14.01,2013-07-31 18:43:00,
2013-07-31 13:48:00,80.7,70.0,29.92,NW,326,0.0,1.0,70,0.00,,SKC,0.00,VWS V14.01,2013-07-31 18:48:00,
2013-07-31 13:50:00,81.2,68.8,29.93,NW,326,0.0,1.0,66,0.00,,SKC,0.00,VWS V14.01,2013-07-31 18:50:00,
2013-07-31 13:53:00,80.8,67.9,29.92,North,350,0.0,0.0,65,0.00,,SKC,0.00,VWS V14.01,2013-07-31 18:53:00,
2013-07-31 13:58:00,80.9,71.0,29.92,North,355,0.0,0.0,72,0.00,,SKC,0.00,VWS V14.01,2013-07-31 18:58:00,
2013-07-31 14:00:00,80.8,67.9,29.92,North,350,0.0,1.0,65,0.00,,SKC,0.00,VWS V14.01,2013-07-31 19:00:00,
2013-07-31 14:03:00,81.7,68.8,29.92,North,355,0.0,0.0,65,0.00,,SKC,0.00,VWS V14.01,2013-07-31 19:03:00,
2013-07-31 14:08:00,81.4,69.8,29.92,North,355,0.0,1.0,68,0.00,,SKC,0.00,VWS V14.01,2013-07-31 19:08:00,
2013-07-31 14:10:00,81.7,68.8,29.92,North,355,0.0,0.0,65,0.00,,SKC,0.00,VWS V14.01,2013-07-31 19:10:00,
2013-07-31 14:13:00,81.8,69.8,29.92,North,355,0.0,0.0,67,0.00,,SKC,0.00,VWS V14.01,2013-07-31 19:13:00,
2013-07-31 14:18:00,81.1,68.7,29.92,North,355,0.0,0.0,66,0.00,,SKC,0.00,VWS V14.01,2013-07-31 19:18:00,
2013-07-31 14:20:00,81.7,69.7,29.92,North,355,0.0,1.0,67,0.00,,SKC,0.00,VWS V14.01,2013-07-31 19:20:00,
2013-07-31 14:23:00,81.8,70.2,29.92,North,355,0.0,0.0,68,0.00,,SKC,0.00,VWS V14.01,2013-07-31 19:23:00,
2013-07-31 14:28:00,82.1,70.1,29.93,NNW,332,3.0,6.0,67,0.00,,SKC,0.00,VWS V14.01,2013-07-31 19:28:00,
2013-07-31 14:30:00,81.7,70.6,29.92,North,355,0.0,0.0,69,0.00,,SKC,0.00,VWS V14.01,2013-07-31 19:30:00,
2013-07-31 14:33:00,81.8,70.6,29.93,NNW,332,0.0,0.0,69,0.00,,SKC,0.00,VWS V14.01,2013-07-31 19:33:00,
2013-07-31 14:38:00,82.0,68.2,29.92,NNW,329,0.0,5.0,63,0.00,,SKC,0.00,VWS V14.01,2013-07-31 19:38:00,
2013-07-31 14:40:00,81.8,70.6,29.93,NNW,331,0.0,6.0,69,0.00,,SKC,0.00,VWS V14.01,2013-07-31 19:40:00,
2013-07-31 14:43:00,82.4,70.3,29.92,NW,311,0.0,0.0,67,0.00,,SKC,0.00,VWS V14.01,2013-07-31 19:43:00,
2013-07-31 14:48:00,82.3,70.7,29.93,North,5,0.0,1.0,68,0.00,,SKC,0.00,VWS V14.01,2013-07-31 19:48:00,
2013-07-31 14:50:00,82.3,70.2,29.92,NW,311,0.0,8.0,67,0.00,,SKC,0.00,VWS V14.01,2013-07-31 19:50:00,
2013-07-31 14:53:00,82.2,68.4,29.92,NNE,13,0.0,0.0,63,0.00,,SKC,0.00,VWS V14.01,2013-07-31 19:53:00,
2013-07-31 14:58:00,82.6,71.8,29.92,NNE,13,0.0,0.0,70,0.00,,SKC,0.00,VWS V14.01,2013-07-31 19:58:00,
2013-07-31 15:00:00,82.3,68.5,29.92,NNE,13,0.0,1.0,63,0.00,,SKC,0.00,VWS V14.01,2013-07-31 20:00:00,
2013-07-31 15:03:00,82.7,68.4,29.92,North,360,0.0,0.0,62,0.00,,SKC,0.00,VWS V14.01,2013-07-31 20:03:00,
2013-07-31 15:08:00,82.7,67.4,29.92,North,360,0.0,1.0,60,0.00,,SKC,0.00,VWS V14.01,2013-07-31 20:08:00,
2013-07-31 15:10:00,82.7,67.4,29.92,North,360,0.0,3.0,60,0.00,,SKC,0.00,VWS V14.01,2013-07-31 20:10:00,
2013-07-31 15:13:00,82.4,68.1,29.92,North,5,0.0,0.0,62,0.00,,SKC,0.00,VWS V14.01,2013-07-31 20:13:00,
2013-07-31 15:18:00,82.8,68.0,29.92,North,5,0.0,1.0,61,0.00,,SKC,0.00,VWS V14.01,2013-07-31 20:18:00,
2013-07-31 15:20:00,82.4,67.6,29.92,North,5,0.0,1.0,61,0.00,,SKC,0.00,VWS V14.01,2013-07-31 20:20:00,
2013-07-31 15:23:00,83.1,68.7,29.92,North,5,0.0,0.0,62,0.00,,SKC,0.00,VWS V14.01,2013-07-31 20:23:00,
2013-07-31 15:28:00,83.2,68.4,29.92,North,5,0.0,1.0,61,0.00,,SKC,0.00,VWS V14.01,2013-07-31 20:28:00,
2013-07-31 15:30:00,83.1,68.7,29.92,North,5,0.0,1.0,62,0.00,,SKC,0.00,VWS V14.01,2013-07-31 20:30:00,
2013-07-31 15:33:00,83.3,68.5,29.92,North,5,0.0,0.0,61,0.00,,SKC,0.00,VWS V14.01,2013-07-31 20:33:00,
2013-07-31 15:38:00,83.7,68.3,29.92,North,5,0.0,1.0,60,0.00,,SKC,0.00,VWS V14.01,2013-07-31 20:38:00,
2013-07-31 15:40:00,83.3,68.9,29.92,North,5,0.0,1.0,62,0.00,,SKC,0.00,VWS V14.01,2013-07-31 20:40:00,
2013-07-31 15:43:00,83.5,67.2,29.92,North,355,0.0,0.0,58,0.00,,SKC,0.00,VWS V14.01,2013-07-31 20:43:00,
2013-07-31 15:48:00,83.4,69.0,29.92,North,351,0.0,0.0,62,0.00,,SKC,0.00,VWS V14.01,2013-07-31 20:48:00,
2013-07-31 15:50:00,83.6,67.3,29.92,North,355,0.0,4.0,58,0.00,,SKC,0.00,VWS V14.01,2013-07-31 20:50:00,
2013-07-31 15:53:00,83.6,67.8,29.91,NNW,348,0.0,0.0,59,0.00,,SKC,0.00,VWS V14.01,2013-07-31 20:53:00,
2013-07-31 15:58:00,83.4,68.6,29.91,North,5,0.0,1.0,61,0.00,,SKC,0.00,VWS V14.01,2013-07-31 20:58:00,
2013-07-31 16:00:00,83.7,67.9,29.92,NNW,348,0.0,1.0,59,0.00,,SKC,0.00,VWS V14.01,2013-07-31 21:00:00,
2013-07-31 16:03:00,83.5,70.9,29.91,North,360,0.0,2.0,66,0.00,,SKC,0.00,VWS V14.01,2013-07-31 21:03:00,
2013-07-31 16:08:00,83.2,68.4,29.91,North,360,0.0,2.0,61,0.00,,SKC,0.00,VWS V14.01,2013-07-31 21:08:00,
2013-07-31 16:10:00,83.4,69.0,29.91,North,5,0.0,1.0,62,0.00,,SKC,0.00,VWS V14.01,2013-07-31 21:10:00,
2013-07-31 16:14:00,83.5,68.7,29.91,North,9,0.0,0.0,61,0.00,,SKC,0.00,VWS V14.01,2013-07-31 21:14:00,
2013-07-31 16:19:00,83.3,68.0,29.90,North,5,0.0,0.0,60,0.00,,SKC,0.00,VWS V14.01,2013-07-31 21:19:00,
2013-07-31 16:20:00,83.4,69.5,29.90,North,9,0.0,2.0,63,0.00,,SKC,0.00,VWS V14.01,2013-07-31 21:20:00,
2013-07-31 16:24:00,83.7,69.3,29.90,NNE,27,0.0,0.0,62,0.00,,SKC,0.00,VWS V14.01,2013-07-31 21:24:00,
2013-07-31 16:29:00,84.0,70.5,29.90,NNE,28,0.0,1.0,64,0.00,,SKC,0.00,VWS V14.01,2013-07-31 21:29:00,
2013-07-31 16:30:00,83.6,68.7,29.90,NNE,27,0.0,1.0,61,0.00,,SKC,0.00,VWS V14.01,2013-07-31 21:30:00,
2013-07-31 16:34:00,84.1,69.2,29.90,North,5,0.0,0.0,61,0.00,,SKC,0.00,VWS V14.01,2013-07-31 21:34:00,
2013-07-31 16:39:00,83.9,70.0,29.90,North,5,0.0,0.0,63,0.00,,SKC,0.00,VWS V14.01,2013-07-31 21:39:00,
2013-07-31 16:40:00,84.1,70.2,29.90,North,5,0.0,5.0,63,0.00,,SKC,0.00,VWS V14.01,2013-07-31 21:40:00,
2013-07-31 16:44:00,83.6,68.7,29.89,North,5,0.0,0.0,61,0.00,,SKC,0.00,VWS V14.01,2013-07-31 21:44:00,
2013-07-31 16:49:00,83.4,68.6,29.89,North,9,0.0,0.0,61,0.00,,SKC,0.00,VWS V14.01,2013-07-31 21:49:00,
2013-07-31 16:50:00,83.7,69.8,29.89,North,5,0.0,0.0,63,0.00,,SKC,0.00,VWS V14.01,2013-07-31 21:50:00,
2013-07-31 16:54:00,83.4,69.9,29.89,NNE,23,0.0,0.0,64,0.00,,SKC,0.00,VWS V14.01,2013-07-31 21:54:00,
2013-07-31 16:59:00,83.3,69.9,29.89,NNE,23,0.0,1.0,64,0.00,,SKC,0.00,VWS V14.01,2013-07-31 21:59:00,
2013-07-31 17:00:00,83.4,70.0,29.89,NNE,23,0.0,2.0,64,0.00,,SKC,0.00,VWS V14.01,2013-07-31 22:00:00,
2013-07-31 17:04:00,83.3,69.4,29.89,NNE,23,0.0,3.0,63,0.00,,SKC,0.00,VWS V14.01,2013-07-31 22:04:00,
2013-07-31 17:09:00,83.6,69.2,29.88,NNE,23,0.0,3.0,62,0.00,,SKC,0.00,VWS V14.01,2013-07-31 22:09:00,
2013-07-31 17:10:00,83.3,68.9,29.89,NNE,23,2.0,2.0,62,0.00,,SKC,0.00,VWS V14.01,2013-07-31 22:10:00,
2013-07-31 17:14:00,83.7,69.8,29.88,NNE,23,0.0,2.0,63,0.00,,SKC,0.00,VWS V14.01,2013-07-31 22:14:00,
2013-07-31 17:19:00,83.7,70.7,29.88,NNE,23,0.0,2.0,65,0.00,,SKC,0.00,VWS V14.01,2013-07-31 22:19:00,
2013-07-31 17:20:00,83.6,69.7,29.88,NNE,23,0.0,3.0,63,0.00,,SKC,0.00,VWS V14.01,2013-07-31 22:20:00,
2013-07-31 17:24:00,83.3,68.9,29.88,NNE,23,0.0,0.0,62,0.00,,SKC,0.00,VWS V14.01,2013-07-31 22:24:00,
2013-07-31 17:29:00,83.2,68.4,29.88,NNE,23,0.0,0.0,61,0.00,,SKC,0.00,VWS V14.01,2013-07-31 22:29:00,
2013-07-31 17:30:00,83.4,68.6,29.88,NNE,23,0.0,2.0,61,0.00,,SKC,0.00,VWS V14.01,2013-07-31 22:30:00,
2013-07-31 17:34:00,83.3,69.9,29.88,NNE,23,0.0,0.0,64,0.00,,SKC,0.00,VWS V14.01,2013-07-31 22:34:00,
2013-07-31 17:39:00,83.1,69.2,29.88,NNE,23,0.0,1.0,63,0.00,,SKC,0.00,VWS V14.01,2013-07-31 22:39:00,
2013-07-31 17:40:00,83.3,69.4,29.88,NNE,23,0.0,0.0,63,0.00,,SKC,0.00,VWS V14.01,2013-07-31 22:40:00,
2013-07-31 17:44:00,83.1,69.7,29.88,NNE,23,2.0,2.0,64,0.00,,SKC,0.00,VWS V14.01,2013-07-31 22:44:00,
2013-07-31 17:49:00,83.2,70.7,29.87,NNE,23,0.0,2.0,66,0.00,,SKC,0.00,VWS V14.01,2013-07-31 22:49:00,
2013-07-31 17:50:00,83.1,70.1,29.88,NNE,23,0.0,1.0,65,0.00,,SKC,0.00,VWS V14.01,2013-07-31 22:50:00,
2013-07-31 17:54:00,83.3,69.4,29.88,NNE,23,0.0,0.0,63,0.00,,SKC,0.00,VWS V14.01,2013-07-31 22:54:00,
2013-07-31 18:00:00,83.4,69.5,29.88,NNE,23,0.0,2.0,63,0.00,,SKC,0.00,VWS V14.01,2013-07-31 23:00:00,
2013-07-31 18:02:00,83.2,69.8,29.87,NNE,23,0.0,0.0,64,0.00,,SKC,0.00,VWS V14.01,2013-07-31 23:02:00,
2013-07-31 18:07:00,83.0,69.6,29.87,NNE,23,0.0,1.0,64,0.00,,SKC,0.00,VWS V14.01,2013-07-31 23:07:00,
2013-07-31 18:10:00,83.2,69.3,29.87,NNE,23,0.0,0.0,63,0.00,,SKC,0.00,VWS V14.01,2013-07-31 23:10:00,
2013-07-31 18:12:00,82.7,68.4,29.87,NNE,23,0.0,1.0,62,0.00,,SKC,0.00,VWS V14.01,2013-07-31 23:12:00,
2013-07-31 18:17:00,82.6,68.7,29.87,NNE,23,0.0,0.0,63,0.00,,SKC,0.00,VWS V14.01,2013-07-31 23:17:00,
2013-07-31 18:20:00,82.7,68.4,29.87,NNE,23,0.0,1.0,62,0.00,,SKC,0.00,VWS V14.01,2013-07-31 23:20:00,
2013-07-31 18:22:00,82.6,70.1,29.87,NNE,23,0.0,1.0,66,0.00,,SKC,0.00,VWS V14.01,2013-07-31 23:22:00,
2013-07-31 18:27:00,82.3,70.3,29.87,NNE,23,0.0,1.0,67,0.00,,SKC,0.00,VWS V14.01,2013-07-31 23:27:00,
2013-07-31 18:30:00,82.5,70.0,29.87,NNE,23,0.0,1.0,66,0.00,,SKC,0.00,VWS V14.01,2013-07-31 23:30:00,
2013-07-31 18:32:00,82.1,70.1,29.87,NNE,23,0.0,1.0,67,0.00,,SKC,0.00,VWS V14.01,2013-07-31 23:32:00,
2013-07-31 18:37:00,81.9,69.0,29.87,NNE,23,0.0,1.0,65,0.00,,SKC,0.00,VWS V14.01,2013-07-31 23:37:00,
2013-07-31 18:40:00,82.1,69.6,29.87,NNE,23,0.0,1.0,66,0.00,,SKC,0.00,VWS V14.01,2013-07-31 23:40:00,
2013-07-31 18:42:00,82.0,69.5,29.87,NNE,23,0.0,1.0,66,0.00,,SKC,0.00,VWS V14.01,2013-07-31 23:42:00,
2013-07-31 18:47:00,81.9,69.0,29.87,NNE,23,0.0,0.0,65,0.00,,SKC,0.00,VWS V14.01,2013-07-31 23:47:00,
2013-07-31 18:50:00,82.0,69.5,29.87,NNE,23,0.0,1.0,66,0.00,,SKC,0.00,VWS V14.01,2013-07-31 23:50:00,
2013-07-31 18:52:00,81.5,69.1,29.87,NNE,23,0.0,0.0,66,0.00,,SKC,0.00,VWS V14.01,2013-07-31 23:52:00,
2013-07-31 18:57:00,81.5,69.1,29.87,NNE,23,0.0,0.0,66,0.00,,SKC,0.00,VWS V14.01,2013-07-31 23:57:00,
2013-07-31 19:00:00,81.5,69.1,29.87,NNE,23,0.0,0.0,66,0.00,,SKC,0.00,VWS V14.01,2013-08-01 00:00:00,
2013-07-31 19:02:00,81.2,69.2,29.87,NNE,23,0.0,0.0,67,0.00,,SKC,0.00,VWS V14.01,2013-08-01 00:02:00,
2013-07-31 19:07:00,81.0,69.4,29.87,NNE,23,0.0,0.0,68,0.00,,SKC,0.00,VWS V14.01,2013-08-01 00:07:00,
2013-07-31 19:10:00,81.2,69.2,29.87,NNE,23,0.0,0.0,67,0.00,,SKC,0.00,VWS V14.01,2013-08-01 00:10:00,
2013-07-31 19:12:00,80.8,69.7,29.87,NNE,23,0.0,0.0,69,0.00,,SKC,0.00,VWS V14.01,2013-08-01 00:12:00,
2013-07-31 19:17:00,80.6,68.6,29.87,NNE,23,0.0,0.0,67,0.00,,SKC,0.00,VWS V14.01,2013-08-01 00:17:00,
2013-07-31 19:20:00,80.8,69.7,29.87,NNE,23,0.0,0.0,69,0.00,,SKC,0.00,VWS V14.01,2013-08-01 00:20:00,
2013-07-31 19:22:00,80.3,69.2,29.87,NNE,23,0.0,0.0,69,0.00,,SKC,0.00,VWS V14.01,2013-08-01 00:22:00,
2013-07-31 19:27:00,80.2,68.3,29.88,NNE,23,0.0,0.0,67,0.00,,SKC,0.00,VWS V14.01,2013-08-01 00:27:00,
2013-07-31 19:30:00,80.4,68.9,29.87,NNE,23,0.0,0.0,68,0.00,,SKC,0.00,VWS V14.01,2013-08-01 00:30:00,
2013-07-31 19:33:00,79.9,69.2,29.88,NNE,23,0.0,0.0,70,0.00,,SKC,0.00,VWS V14.01,2013-08-01 00:33:00,
2013-07-31 19:38:00,79.8,69.2,29.88,NNE,23,0.0,0.0,70,0.00,,SKC,0.00,VWS V14.01,2013-08-01 00:38:00,
2013-07-31 19:40:00,79.9,69.2,29.88,NNE,23,0.0,0.0,70,0.00,,SKC,0.00,VWS V14.01,2013-08-01 00:40:00,
2013-07-31 19:43:00,79.5,69.3,29.88,NNE,23,0.0,1.0,71,0.00,,SKC,0.00,VWS V14.01,2013-08-01 00:43:00,
2013-07-31 19:48:00,79.2,68.6,29.88,NNE,23,0.0,0.0,70,0.00,,SKC,0.00,VWS V14.01,2013-08-01 00:48:00,
2013-07-31 19:50:00,79.5,69.3,29.88,NNE,23,0.0,1.0,71,0.00,,SKC,0.00,VWS V14.01,2013-08-01 00:50:00,
2013-07-31 19:53:00,78.9,69.1,29.89,NNE,23,0.0,0.0,72,0.00,,SKC,0.00,VWS V14.01,2013-08-01 00:53:00,
2013-07-31 19:58:00,78.5,69.1,29.89,NNE,23,0.0,0.0,73,0.00,,SKC,0.00,VWS V14.01,2013-08-01 00:58:00,
2013-07-31 20:00:00,78.9,69.1,29.89,NNE,23,0.0,0.0,72,0.00,,SKC,0.00,VWS V14.01,2013-08-01 01:00:00,
2013-07-31 20:03:00,77.9,69.3,29.89,NNE,23,0.0,0.0,75,0.00,,SKC,0.00,VWS V14.01,2013-08-01 01:03:00,
2013-07-31 20:08:00,77.5,69.3,29.89,NNE,23,0.0,0.0,76,0.00,,SKC,0.00,VWS V14.01,2013-08-01 01:08:00,
2013-07-31 20:10:00,77.9,69.3,29.89,NNE,23,0.0,0.0,75,0.00,,SKC,0.00,VWS V14.01,2013-08-01 01:10:00,
2013-07-31 20:13:00,77.4,68.9,29.89,NNE,23,0.0,0.0,75,0.00,,SKC,0.00,VWS V14.01,2013-08-01 01:13:00,
2013-07-31 20:18:00,77.3,69.2,29.89,NNE,23,0.0,0.0,76,0.00,,SKC,0.00,VWS V14.01,2013-08-01 01:18:00,
2013-07-31 20:20:00,77.4,68.9,29.89,NNE,23,0.0,0.0,75,0.00,,SKC,0.00,VWS V14.01,2013-08-01 01:20:00,
2013-07-31 20:23:00,76.5,68.8,29.89,NNE,23,0.0,0.0,77,0.00,,SKC,0.00,VWS V14.01,2013-08-01 01:23:00,
2013-07-31 20:28:00,75.9,68.9,29.89,NNE,23,0.0,0.0,79,0.00,,SKC,0.00,VWS V14.01,2013-08-01 01:28:00,
2013-07-31 20:30:00,76.5,68.8,29.89,NNE,23,0.0,0.0,77,0.00,,SKC,0.00,VWS V14.01,2013-08-01 01:30:00,
2013-07-31 20:33:00,75.5,69.6,29.89,NNE,23,0.0,0.0,82,0.00,,SKC,0.00,VWS V14.01,2013-08-01 01:33:00,
2013-07-31 20:38:00,75.2,69.3,29.89,NNE,23,0.0,0.0,82,0.00,,SKC,0.00,VWS V14.01,2013-08-01 01:38:00,
2013-07-31 20:40:00,75.5,69.6,29.89,NNE,23,0.0,0.0,82,0.00,,SKC,0.00,VWS V14.01,2013-08-01 01:40:00,
2013-07-31 20:43:00,74.9,69.0,29.88,NNE,23,0.0,0.0,82,0.00,,SKC,0.00,VWS V14.01,2013-08-01 01:43:00,
2013-07-31 20:48:00,74.7,68.5,29.88,NNE,23,0.0,0.0,81,0.00,,SKC,0.00,VWS V14.01,2013-08-01 01:48:00,
2013-07-31 20:50:00,74.9,69.0,29.89,NNE,23,0.0,0.0,82,0.00,,SKC,0.00,VWS V14.01,2013-08-01 01:50:00,
2013-07-31 20:53:00,74.4,68.9,29.88,NNE,23,0.0,0.0,83,0.00,,SKC,0.00,VWS V14.01,2013-08-01 01:53:00,
2013-07-31 20:58:00,74.0,68.9,29.88,NNE,23,0.0,0.0,84,0.00,,SKC,0.00,VWS V14.01,2013-08-01 01:58:00,
2013-07-31 21:00:00,74.4,68.9,29.88,NNE,23,0.0,0.0,83,0.00,,SKC,0.00,VWS V14.01,2013-08-01 02:00:00,
2013-07-31 21:03:00,73.8,68.7,29.88,NNE,23,0.0,0.0,84,0.00,,SKC,0.00,VWS V14.01,2013-08-01 02:03:00,
2013-07-31 21:08:00,73.4,68.3,29.89,NNE,23,0.0,0.0,84,0.00,,SKC,0.00,VWS V14.01,2013-08-01 02:08:00,
2013-07-31 21:10:00,73.8,68.7,29.88,NNE,23,0.0,0.0,84,0.00,,SKC,0.00,VWS V14.01,2013-08-01 02:10:00,
2013-07-31 21:13:00,73.5,68.4,29.89,NNE,23,0.0,0.0,84,0.00,,SKC,0.00,VWS V14.01,2013-08-01 02:13:00,
2013-07-31 21:18:00,73.4,68.3,29.89,NNE,23,0.0,0.0,84,0.00,,SKC,0.00,VWS V14.01,2013-08-01 02:18:00,
2013-07-31 21:20:00,73.5,68.4,29.89,NNE,23,0.0,1.0,84,0.00,,SKC,0.00,VWS V14.01,2013-08-01 02:20:00,
2013-07-31 21:23:00,73.1,68.3,29.89,NNE,23,0.0,0.0,85,0.00,,SKC,0.00,VWS V14.01,2013-08-01 02:23:00,
2013-07-31 21:28:00,73.0,68.2,29.89,NNE,23,0.0,0.0,85,0.00,,SKC,0.00,VWS V14.01,2013-08-01 02:28:00,
2013-07-31 21:30:00,73.1,68.3,29.89,NNE,23,0.0,0.0,85,0.00,,SKC,0.00,VWS V14.01,2013-08-01 02:30:00,
2013-07-31 21:33:00,73.2,68.4,29.89,NNE,23,0.0,0.0,85,0.00,,SKC,0.00,VWS V14.01,2013-08-01 02:33:00,
2013-07-31 21:38:00,73.5,68.4,29.89,NNE,23,0.0,2.0,84,0.00,,SKC,0.00,VWS V14.01,2013-08-01 02:38:00,
2013-07-31 21:40:00,73.2,68.4,29.89,NNE,23,0.0,1.0,85,0.00,,SKC,0.00,VWS V14.01,2013-08-01 02:40:00,
2013-07-31 21:43:00,73.7,68.2,29.90,NNE,23,0.0,0.0,83,0.00,,SKC,0.00,VWS V14.01,2013-08-01 02:43:00,
2013-07-31 21:48:00,73.2,68.4,29.90,NNE,23,0.0,0.0,85,0.00,,SKC,0.00,VWS V14.01,2013-08-01 02:48:00,
2013-07-31 21:50:00,73.7,68.2,29.90,NNE,23,0.0,2.0,83,0.00,,SKC,0.00,VWS V14.01,2013-08-01 02:50:00,
2013-07-31 21:53:00,72.7,68.3,29.90,NNE,23,0.0,0.0,86,0.00,,SKC,0.00,VWS V14.01,2013-08-01 02:53:00,
2013-07-31 21:58:00,72.4,68.0,29.90,NNE,23,0.0,0.0,86,0.00,,SKC,0.00,VWS V14.01,2013-08-01 02:58:00,
2013-07-31 22:00:00,72.7,67.9,29.90,NNE,23,0.0,0.0,85,0.00,,SKC,0.00,VWS V14.01,2013-08-01 03:00:00,
2013-07-31 22:03:00,72.5,68.1,29.90,NNE,23,0.0,0.0,86,0.00,,SKC,0.00,VWS V14.01,2013-08-01 03:03:00,
2013-07-31 22:08:00,72.3,67.9,29.90,NNE,23,0.0,0.0,86,0.00,,SKC,0.00,VWS V14.01,2013-08-01 03:08:00,
2013-07-31 22:09:00,72.2,67.8,29.90,NNE,23,0.0,0.0,86,0.00,,SKC,0.00,VWS V14.01,2013-08-01 03:09:00,
2013-07-31 22:10:00,72.5,68.1,29.90,NNE,23,0.0,0.0,86,0.00,,SKC,0.00,VWS V14.01,2013-08-01 03:10:00,
2013-07-31 22:14:00,72.3,67.9,29.91,NNE,23,0.0,0.0,86,0.00,,SKC,0.00,VWS V14.01,2013-08-01 03:14:00,
2013-07-31 22:19:00,72.6,67.8,29.91,NNE,23,0.0,0.0,85,0.00,,SKC,0.00,VWS V14.01,2013-08-01 03:19:00,
2013-07-31 22:20:00,72.2,67.8,29.91,NNE,23,0.0,0.0,86,0.00,,SKC,0.00,VWS V14.01,2013-08-01 03:20:00,
2013-07-31 22:24:00,72.4,67.6,29.91,NNE,23,0.0,0.0,85,0.00,,SKC,0.00,VWS V14.01,2013-08-01 03:24:00,
2013-07-31 22:29:00,72.2,67.8,29.91,NNE,23,0.0,0.0,86,0.00,,SKC,0.00,VWS V14.01,2013-08-01 03:29:00,
2013-07-31 22:30:00,72.5,67.7,29.91,NNE,23,0.0,0.0,85,0.00,,SKC,0.00,VWS V14.01,2013-08-01 03:30:00,
2013-07-31 22:34:00,72.3,67.9,29.91,NNE,23,0.0,0.0,86,0.00,,SKC,0.00,VWS V14.01,2013-08-01 03:34:00,
2013-07-31 22:39:00,72.0,67.6,29.91,NNE,23,0.0,0.0,86,0.00,,SKC,0.00,VWS V14.01,2013-08-01 03:39:00,
2013-07-31 22:40:00,72.3,67.9,29.91,NNE,23,0.0,0.0,86,0.00,,SKC,0.00,VWS V14.01,2013-08-01 03:40:00,
2013-07-31 22:44:00,71.8,67.7,29.91,NNE,23,0.0,0.0,87,0.00,,SKC,0.00,VWS V14.01,2013-08-01 03:44:00,
2013-07-31 22:49:00,71.3,67.2,29.91,NNE,23,0.0,0.0,87,0.00,,SKC,0.00,VWS V14.01,2013-08-01 03:49:00,
2013-07-31 22:50:00,71.9,67.8,29.91,NNE,23,0.0,0.0,87,0.00,,SKC,0.00,VWS V14.01,2013-08-01 03:50:00,
2013-07-31 22:54:00,70.9,67.2,29.92,NNE,23,0.0,0.0,88,0.00,,SKC,0.00,VWS V14.01,2013-08-01 03:54:00,
2013-07-31 22:59:00,70.7,67.0,29.92,NNE,23,0.0,0.0,88,0.00,,SKC,0.00,VWS V14.01,2013-08-01 03:59:00,
2013-07-31 23:00:00,71.0,67.3,29.92,NNE,23,0.0,0.0,88,0.00,,SKC,0.00,VWS V14.01,2013-08-01 04:00:00,
2013-07-31 23:01:00,70.5,66.8,29.92,NNE,23,0.0,0.0,88,0.00,,SKC,0.00,VWS V14.01,2013-08-01 04:01:00,
2013-07-31 23:02:00,70.4,67.0,29.92,NNE,23,0.0,0.0,89,0.00,,SKC,0.00,VWS V14.01,2013-08-01 04:02:00,
2013-07-31 23:07:00,70.2,66.8,29.92,NNE,23,0.0,0.0,89,0.00,,SKC,0.00,VWS V14.01,2013-08-01 04:07:00,
2013-07-31 23:10:00,70.4,67.0,29.92,NNE,23,0.0,0.0,89,0.00,,SKC,0.00,VWS V14.01,2013-08-01 04:10:00,
2013-07-31 23:12:00,69.8,67.1,29.92,NNE,23,0.0,0.0,91,0.00,,SKC,0.00,VWS V14.01,2013-08-01 04:12:00,
2013-07-31 23:17:00,69.5,66.8,29.92,NNE,23,0.0,0.0,91,0.00,,SKC,0.00,VWS V14.01,2013-08-01 04:17:00,
2013-07-31 23:20:00,69.8,67.1,29.92,NNE,23,0.0,0.0,91,0.00,,SKC,0.00,VWS V14.01,2013-08-01 04:20:00,
2013-07-31 23:22:00,69.4,67.3,29.92,NNE,23,0.0,0.0,93,0.00,,SKC,0.00,VWS V14.01,2013-08-01 04:22:00,
2013-07-31 23:27:00,69.2,67.1,29.92,NNE,23,0.0,0.0,93,0.00,,SKC,0.00,VWS V14.01,2013-08-01 04:27:00,
2013-07-31 23:30:00,69.3,67.2,29.92,NNE,23,0.0,0.0,93,0.00,,SKC,0.00,VWS V14.01,2013-08-01 04:30:00,
2013-07-31 23:32:00,69.2,67.1,29.92,NNE,23,0.0,0.0,93,0.00,,SKC,0.00,VWS V14.01,2013-08-01 04:32:00,
2013-07-31 23:37:00,69.2,67.1,29.92,NNE,23,0.0,0.0,93,0.00,,SKC,0.00,VWS V14.01,2013-08-01 04:37:00,
2013-07-31 23:40:00,69.1,67.0,29.92,NNE,23,0.0,0.0,93,0.00,,SKC,0.00,VWS V14.01,2013-08-01 04:40:00,
2013-07-31 23:42:00,69.4,67.3,29.92,NNE,23,0.0,0.0,93,0.00,,SKC,0.00,VWS V14.01,2013-08-01 04:42:00,
2013-07-31 23:47:00,69.4,67.0,29.92,NNE,23,0.0,0.0,92,0.00,,SKC,0.00,VWS V14.01,2013-08-01 04:47:00,
2013-07-31 23:52:00,69.3,67.2,29.92,NNE,23,0.0,0.0,93,0.00,,SKC,0.00,VWS V14.01,2013-08-01 04:52:00,
2013-07-31 23:57:00,69.2,67.1,29.91,NNE,23,0.0,0.0,93,0.00,,SKC,0.00,VWS V14.01,2013-08-01 04:57:00,